User: anonymous   Login
Location: Cannifist
(18.2333°N, 63.0167°W)
Time: 07:27:47
(UTC+00:00)
Language:

H-2A R/B - Orbit

View from above orbital plane
View from above orbital plane
View from above satellite
View from above satellite

Ground track
Ground track

The orbit data is extracted from the following two-line orbital elements,

1 27601U 02056E   20156.74864628  .00000037  00000-0  28488-4 0  9992
2 27601  98.2268 193.1736 0071189 316.2531 154.4557 14.31951997912877
Epoch (UTC): 04 June 2020 17:58:03
Eccentricity: 0.0071189
inclination: 98.2268°
perigee height: 734 km
apogee height: 836 km
right ascension of ascending node: 193.1736°
argument of perigee: 316.2531°
revolutions per day: 14.31951997
mean anomaly at epoch: 154.4557°
orbit number at epoch: 91287

The dashed part of the orbit path shows where the satellite is in the earth's shadow,  

DLR